Year,Month,Day,Hour,Minute,Value (Times are PST for temperature in C)
2006,08,21,00,00,15.50
2006,08,21,00,01,15.40
2006,08,21,00,02,15.40
2006,08,21,00,03,15.40
2006,08,21,00,04,15.40
2006,08,21,00,05,15.40
2006,08,21,00,06,15.40
2006,08,21,00,07,15.40
2006,08,21,00,08,15.40
2006,08,21,00,09,15.40
2006,08,21,00,10,15.40
2006,08,21,00,11,15.40
2006,08,21,00,12,15.40
2006,08,21,00,13,15.40
2006,08,21,00,14,15.40
2006,08,21,00,15,15.40
2006,08,21,00,16,15.40
2006,08,21,00,17,15.40
2006,08,21,00,18,15.40
2006,08,21,00,19,15.50
2006,08,21,00,20,15.50
2006,08,21,00,21,15.40
2006,08,21,00,22,15.40
2006,08,21,00,23,15.30
2006,08,21,00,24,15.30
2006,08,21,00,25,15.30
2006,08,21,00,26,15.30
2006,08,21,00,27,15.30
2006,08,21,00,28,15.20
2006,08,21,00,29,15.20
2006,08,21,00,30,15.10
2006,08,21,00,31,15.10
2006,08,21,00,32,15.00
2006,08,21,00,33,14.90
2006,08,21,00,34,14.90
2006,08,21,00,35,14.80
2006,08,21,00,36,14.80
2006,08,21,00,37,14.80
2006,08,21,00,38,14.70
2006,08,21,00,39,14.70
2006,08,21,00,40,14.70
2006,08,21,00,41,14.60
2006,08,21,00,42,14.60
2006,08,21,00,43,14.60
2006,08,21,00,44,14.60
2006,08,21,00,45,14.60
2006,08,21,00,46,14.50
2006,08,21,00,47,14.50
2006,08,21,00,48,14.50
2006,08,21,00,49,14.50
2006,08,21,00,50,14.50
2006,08,21,00,51,14.50
2006,08,21,00,52,14.50
2006,08,21,00,53,14.50
2006,08,21,00,54,14.50
2006,08,21,00,55,14.50
2006,08,21,00,56,14.50
2006,08,21,00,57,14.50
2006,08,21,00,58,14.50
2006,08,21,00,59,14.50
2006,08,21,01,00,14.50
2006,08,21,01,01,14.50
2006,08,21,01,02,14.50
2006,08,21,01,03,14.50
2006,08,21,01,04,14.60
2006,08,21,01,05,14.60
2006,08,21,01,06,14.60
2006,08,21,01,07,14.70
2006,08,21,01,08,14.70
2006,08,21,01,09,14.70
2006,08,21,01,10,14.70
2006,08,21,01,11,14.70
2006,08,21,01,12,14.80
2006,08,21,01,13,14.80
2006,08,21,01,14,14.80
2006,08,21,01,15,14.80
2006,08,21,01,16,14.80
2006,08,21,01,17,14.80
2006,08,21,01,18,14.80
2006,08,21,01,19,14.90
2006,08,21,01,20,14.90
2006,08,21,01,21,15.00
2006,08,21,01,22,15.00
2006,08,21,01,23,15.10
2006,08,21,01,24,15.10
2006,08,21,01,25,15.20
2006,08,21,01,26,15.30
2006,08,21,01,27,15.30
2006,08,21,01,28,15.30
2006,08,21,01,29,15.40
2006,08,21,01,30,15.40
2006,08,21,01,31,15.40
2006,08,21,01,32,15.50
2006,08,21,01,33,15.50
2006,08,21,01,34,15.50
2006,08,21,01,35,15.50
2006,08,21,01,36,15.60
2006,08,21,01,37,15.60
2006,08,21,01,38,15.60
2006,08,21,01,39,15.60
2006,08,21,01,40,15.60
2006,08,21,01,41,15.70
2006,08,21,01,42,15.70
2006,08,21,01,43,15.70
2006,08,21,01,44,15.70
2006,08,21,01,45,15.70
2006,08,21,01,46,15.70
2006,08,21,01,47,15.70
2006,08,21,01,48,15.70
2006,08,21,01,49,15.70
2006,08,21,01,50,15.70
2006,08,21,01,51,15.60
2006,08,21,01,52,15.60
2006,08,21,01,53,15.60
2006,08,21,01,54,15.60
2006,08,21,01,55,15.60
2006,08,21,01,56,15.60
2006,08,21,01,57,15.60
2006,08,21,01,58,15.50
2006,08,21,01,59,15.50
2006,08,21,02,00,15.50
2006,08,21,02,01,15.50
2006,08,21,02,02,15.50
2006,08,21,02,03,15.40
2006,08,21,02,04,15.40
2006,08,21,02,05,15.40
2006,08,21,02,06,15.40
2006,08,21,02,07,15.40
2006,08,21,02,08,15.30
2006,08,21,02,09,15.30
2006,08,21,02,10,15.30
2006,08,21,02,11,15.30
2006,08,21,02,12,15.30
2006,08,21,02,13,15.30
2006,08,21,02,14,15.30
2006,08,21,02,15,15.30
2006,08,21,02,16,15.30
2006,08,21,02,17,15.30
2006,08,21,02,18,15.30
2006,08,21,02,19,15.30
2006,08,21,02,20,15.30
2006,08,21,02,21,15.30
2006,08,21,02,22,15.30
2006,08,21,02,23,15.20
2006,08,21,02,24,15.20
2006,08,21,02,25,15.20
2006,08,21,02,26,15.20
2006,08,21,02,27,15.10
2006,08,21,02,28,15.10
2006,08,21,02,29,15.00
2006,08,21,02,30,15.00
2006,08,21,02,31,14.90
2006,08,21,02,32,14.90
2006,08,21,02,33,14.80
2006,08,21,02,34,14.70
2006,08,21,02,35,14.60
2006,08,21,02,36,14.40
2006,08,21,02,37,14.20
2006,08,21,02,38,14.10
2006,08,21,02,39,14.00
2006,08,21,02,40,13.90
2006,08,21,02,41,13.70
2006,08,21,02,42,13.60
2006,08,21,02,43,13.60
2006,08,21,02,44,13.50
2006,08,21,02,45,13.40
2006,08,21,02,46,13.30
2006,08,21,02,47,13.30
2006,08,21,02,48,13.20
2006,08,21,02,49,13.20
2006,08,21,02,50,13.10
2006,08,21,02,51,13.00
2006,08,21,02,52,13.00
2006,08,21,02,53,13.00
2006,08,21,02,54,12.90
2006,08,21,02,55,12.90
2006,08,21,02,56,12.90
2006,08,21,02,57,12.80
2006,08,21,02,58,12.80
2006,08,21,02,59,12.80
2006,08,21,03,00,12.80
2006,08,21,03,01,12.80
2006,08,21,03,02,12.80
2006,08,21,03,03,12.80
2006,08,21,03,04,12.80
2006,08,21,03,05,12.80
2006,08,21,03,06,12.80
2006,08,21,03,07,12.90
2006,08,21,03,08,12.90
2006,08,21,03,09,12.90
2006,08,21,03,10,12.90
2006,08,21,03,11,12.90
2006,08,21,03,12,12.90
2006,08,21,03,13,12.90
2006,08,21,03,14,12.90
2006,08,21,03,15,12.90
2006,08,21,03,16,12.90
2006,08,21,03,17,12.90
2006,08,21,03,18,12.90
2006,08,21,03,19,12.90
2006,08,21,03,20,12.90
2006,08,21,03,21,12.80
2006,08,21,03,22,12.80
2006,08,21,03,23,12.80
2006,08,21,03,24,12.80
2006,08,21,03,25,12.80
2006,08,21,03,26,12.80
2006,08,21,03,27,12.80
2006,08,21,03,28,12.80
2006,08,21,03,29,12.80
2006,08,21,03,30,12.80
2006,08,21,03,31,12.80
2006,08,21,03,32,12.80
2006,08,21,03,33,12.80
2006,08,21,03,34,12.80
2006,08,21,03,35,12.80
2006,08,21,03,36,12.80
2006,08,21,03,37,12.80
2006,08,21,03,38,12.80
2006,08,21,03,39,12.80
2006,08,21,03,40,12.80
2006,08,21,03,41,12.80
2006,08,21,03,42,12.80
2006,08,21,03,43,12.80
2006,08,21,03,44,12.80
2006,08,21,03,45,12.80
2006,08,21,03,46,12.80
2006,08,21,03,47,12.80
2006,08,21,03,48,12.80
2006,08,21,03,49,12.80
2006,08,21,03,50,12.80
2006,08,21,03,51,12.80
2006,08,21,03,52,12.70
2006,08,21,03,53,12.70
2006,08,21,03,54,12.70
2006,08,21,03,55,12.70
2006,08,21,03,56,12.70
2006,08,21,03,57,12.70
2006,08,21,03,58,12.70
2006,08,21,03,59,12.70
2006,08,21,04,00,12.70
2006,08,21,04,01,12.70
2006,08,21,04,02,12.70
2006,08,21,04,03,12.70
2006,08,21,04,04,12.70
2006,08,21,04,05,12.70
2006,08,21,04,06,12.70
2006,08,21,04,07,12.70
2006,08,21,04,08,12.70
2006,08,21,04,09,12.70
2006,08,21,04,10,12.80
2006,08,21,04,11,12.80
2006,08,21,04,12,12.80
2006,08,21,04,13,12.80
2006,08,21,04,14,12.80
2006,08,21,04,15,12.80
2006,08,21,04,16,12.80
2006,08,21,04,17,12.80
2006,08,21,04,18,12.80
2006,08,21,04,19,12.80
2006,08,21,04,20,12.80
2006,08,21,04,21,12.80
2006,08,21,04,22,12.80
2006,08,21,04,23,12.80
2006,08,21,04,24,12.80
2006,08,21,04,25,12.80
2006,08,21,04,26,12.80
2006,08,21,04,27,12.80
2006,08,21,04,28,12.90
2006,08,21,04,29,12.90
2006,08,21,04,30,12.90
2006,08,21,04,31,12.90
2006,08,21,04,32,13.00
2006,08,21,04,33,13.00
2006,08,21,04,34,13.00
2006,08,21,04,35,13.00
2006,08,21,04,36,13.00
2006,08,21,04,37,13.10
2006,08,21,04,38,13.10
2006,08,21,04,39,13.10
2006,08,21,04,40,13.10
2006,08,21,04,41,13.10
2006,08,21,04,42,13.10
2006,08,21,04,43,13.10
2006,08,21,04,44,13.10
2006,08,21,04,45,13.10
2006,08,21,04,46,13.10
2006,08,21,04,47,13.10
2006,08,21,04,48,13.10
2006,08,21,04,49,13.20
2006,08,21,04,50,13.20
2006,08,21,04,51,13.20
2006,08,21,04,52,13.20
2006,08,21,04,53,13.10
2006,08,21,04,54,13.10
2006,08,21,04,55,13.10
2006,08,21,04,56,13.10
2006,08,21,04,57,13.00
2006,08,21,04,58,13.00
2006,08,21,04,59,13.00
2006,08,21,05,00,13.00
2006,08,21,05,01,12.90
2006,08,21,05,02,12.90
2006,08,21,05,03,12.90
2006,08,21,05,04,12.90
2006,08,21,05,05,12.90
2006,08,21,05,06,12.90
2006,08,21,05,07,12.90
2006,08,21,05,08,12.90
2006,08,21,05,09,12.90
2006,08,21,05,10,12.90
2006,08,21,05,11,12.90
2006,08,21,05,12,12.90
2006,08,21,05,13,12.90
2006,08,21,05,14,13.00
2006,08,21,05,15,13.00
2006,08,21,05,16,13.00
2006,08,21,05,17,13.00
2006,08,21,05,18,13.00
2006,08,21,05,19,13.00
2006,08,21,05,20,13.00
2006,08,21,05,21,13.00
2006,08,21,05,22,13.00
2006,08,21,05,23,13.00
2006,08,21,05,24,13.00
2006,08,21,05,25,13.00
2006,08,21,05,26,13.00
2006,08,21,05,27,13.00
2006,08,21,05,28,13.00
2006,08,21,05,29,13.00
2006,08,21,05,30,13.10
2006,08,21,05,31,13.10
2006,08,21,05,32,13.10
2006,08,21,05,33,13.10
2006,08,21,05,34,13.10
2006,08,21,05,35,13.10
2006,08,21,05,36,13.10
2006,08,21,05,37,13.10
2006,08,21,05,38,13.20
2006,08,21,05,39,13.20
2006,08,21,05,40,13.20
2006,08,21,05,41,13.20
2006,08,21,05,42,13.30
2006,08,21,05,43,13.30
2006,08,21,05,44,13.30
2006,08,21,05,45,13.30
2006,08,21,05,46,13.30
2006,08,21,05,47,13.30
2006,08,21,05,48,13.30
2006,08,21,05,49,13.30
2006,08,21,05,50,13.30
2006,08,21,05,51,13.40
2006,08,21,05,52,13.40
2006,08,21,05,53,13.40
2006,08,21,05,54,13.40
2006,08,21,05,55,13.40
2006,08,21,05,56,13.40
2006,08,21,05,57,13.40
2006,08,21,05,58,13.40
2006,08,21,05,59,13.40
2006,08,21,06,00,13.40
2006,08,21,06,01,13.40
2006,08,21,06,02,13.40
2006,08,21,06,03,13.40
2006,08,21,06,04,13.40
2006,08,21,06,05,13.40
2006,08,21,06,06,13.40
2006,08,21,06,07,13.40
2006,08,21,06,08,13.40
2006,08,21,06,09,13.40
2006,08,21,06,10,13.40
2006,08,21,06,11,13.40
2006,08,21,06,12,13.40
2006,08,21,06,13,13.40
2006,08,21,06,14,13.40
2006,08,21,06,15,13.30
2006,08,21,06,16,13.30
2006,08,21,06,17,13.30
2006,08,21,06,18,13.30
2006,08,21,06,19,13.30
2006,08,21,06,20,13.40
2006,08,21,06,21,13.40
2006,08,21,06,22,13.40
2006,08,21,06,23,13.40
2006,08,21,06,24,13.40
2006,08,21,06,25,13.40
2006,08,21,06,26,13.40
2006,08,21,06,27,13.30
2006,08,21,06,28,13.20
2006,08,21,06,29,13.10
2006,08,21,06,30,13.00
2006,08,21,06,31,12.90
2006,08,21,06,32,12.80
2006,08,21,06,33,12.80
2006,08,21,06,34,12.70
2006,08,21,06,35,12.60
2006,08,21,06,36,12.50
2006,08,21,06,37,12.50
2006,08,21,06,38,12.40
2006,08,21,06,39,12.40
2006,08,21,06,40,12.30
2006,08,21,06,41,12.30
2006,08,21,06,42,12.30
2006,08,21,06,43,12.30
2006,08,21,06,44,12.20
2006,08,21,06,45,12.20
2006,08,21,06,46,12.20
2006,08,21,06,47,12.10
2006,08,21,06,48,12.10
2006,08,21,06,49,12.10
2006,08,21,06,50,12.00
2006,08,21,06,51,12.00
2006,08,21,06,52,12.00
2006,08,21,06,53,12.00
2006,08,21,06,54,12.00
2006,08,21,06,55,11.90
2006,08,21,06,56,11.90
2006,08,21,06,57,11.90
2006,08,21,06,58,11.90
2006,08,21,06,59,11.90
2006,08,21,07,00,11.90
2006,08,21,07,01,11.90
2006,08,21,07,02,11.90
2006,08,21,07,03,11.90
2006,08,21,07,04,11.90
2006,08,21,07,05,12.00
2006,08,21,07,06,12.00
2006,08,21,07,07,12.00
2006,08,21,07,08,12.00
2006,08,21,07,09,12.00
2006,08,21,07,10,12.00
2006,08,21,07,11,12.00
2006,08,21,07,12,12.10
2006,08,21,07,13,12.10
2006,08,21,07,14,12.20
2006,08,21,07,15,12.20
2006,08,21,07,16,12.30
2006,08,21,07,17,12.30
2006,08,21,07,18,12.30
2006,08,21,07,19,12.30
2006,08,21,07,20,12.40
2006,08,21,07,21,12.40
2006,08,21,07,22,12.50
2006,08,21,07,23,12.50
2006,08,21,07,24,12.50
2006,08,21,07,25,12.60
2006,08,21,07,26,12.60
2006,08,21,07,27,12.60
2006,08,21,07,28,12.60
2006,08,21,07,29,12.60
2006,08,21,07,30,12.60
2006,08,21,07,31,12.60
2006,08,21,07,32,12.60
2006,08,21,07,33,12.60
2006,08,21,07,34,12.60
2006,08,21,07,35,12.50
2006,08,21,07,36,12.50
2006,08,21,07,37,12.50
2006,08,21,07,38,12.50
2006,08,21,07,39,12.50
2006,08,21,07,40,12.60
2006,08,21,07,41,12.60
2006,08,21,07,42,12.70
2006,08,21,07,43,12.70
2006,08,21,07,44,12.80
2006,08,21,07,45,12.80
2006,08,21,07,46,12.80
2006,08,21,07,47,12.80
2006,08,21,07,48,12.90
2006,08,21,07,49,12.90
2006,08,21,07,50,13.00
2006,08,21,07,51,13.10
2006,08,21,07,52,13.10
2006,08,21,07,53,13.10
2006,08,21,07,54,13.20
2006,08,21,07,55,13.20
2006,08,21,07,56,13.20
2006,08,21,07,57,13.20
2006,08,21,07,58,13.30
2006,08,21,07,59,13.30
2006,08,21,08,00,13.30
2006,08,21,08,01,13.40
2006,08,21,08,02,13.50
2006,08,21,08,03,13.60
2006,08,21,08,04,13.60
2006,08,21,08,05,13.70
2006,08,21,08,06,13.90
2006,08,21,08,07,14.00
2006,08,21,08,08,14.10
2006,08,21,08,09,14.20
2006,08,21,08,10,14.30
2006,08,21,08,11,14.40
2006,08,21,08,12,14.40
2006,08,21,08,13,14.50
2006,08,21,08,14,14.60
2006,08,21,08,15,14.60
2006,08,21,08,16,14.70
2006,08,21,08,17,14.80
2006,08,21,08,18,14.80
2006,08,21,08,19,14.90
2006,08,21,08,20,14.90
2006,08,21,08,21,15.00
2006,08,21,08,22,15.10
2006,08,21,08,23,15.20
2006,08,21,08,24,15.20
2006,08,21,08,25,15.30
2006,08,21,08,26,15.30
2006,08,21,08,27,15.30
2006,08,21,08,28,15.30
2006,08,21,08,29,15.30
2006,08,21,08,30,15.30
2006,08,21,08,31,15.30
2006,08,21,08,32,15.30
2006,08,21,08,33,15.40
2006,08,21,08,34,15.40
2006,08,21,08,35,15.40
2006,08,21,08,36,15.40
2006,08,21,08,37,15.40
2006,08,21,08,38,15.30
2006,08,21,08,39,15.30
2006,08,21,08,40,15.20
2006,08,21,08,41,15.10
2006,08,21,08,42,15.00
2006,08,21,08,43,14.90
2006,08,21,08,44,14.90
2006,08,21,08,45,14.80
2006,08,21,08,46,14.80
2006,08,21,08,47,14.80
2006,08,21,08,48,14.70
2006,08,21,08,49,14.60
2006,08,21,08,50,14.60
2006,08,21,08,51,14.50
2006,08,21,08,52,14.50
2006,08,21,08,53,14.50
2006,08,21,08,54,14.50
2006,08,21,08,55,14.60
2006,08,21,08,56,14.60
2006,08,21,08,57,14.60
2006,08,21,08,58,14.70
2006,08,21,08,59,14.70
2006,08,21,09,00,14.80
2006,08,21,09,01,14.80
2006,08,21,09,02,14.80
2006,08,21,09,03,14.80
2006,08,21,09,04,14.80
2006,08,21,09,05,14.90
2006,08,21,09,06,15.00
2006,08,21,09,07,15.00
2006,08,21,09,08,15.10
2006,08,21,09,09,15.20
2006,08,21,09,10,15.20
2006,08,21,09,11,15.30
2006,08,21,09,12,15.30
2006,08,21,09,13,15.30
2006,08,21,09,14,15.40
2006,08,21,09,15,15.50
2006,08,21,09,16,15.50
2006,08,21,09,17,15.60
2006,08,21,09,18,15.60
2006,08,21,09,19,15.70
2006,08,21,09,20,15.70
2006,08,21,09,21,15.80
2006,08,21,09,22,15.80
2006,08,21,09,23,15.80
2006,08,21,09,24,15.80
2006,08,21,09,25,15.80
2006,08,21,09,26,15.80
2006,08,21,09,27,15.80
2006,08,21,09,28,15.80
2006,08,21,09,29,15.80
2006,08,21,09,30,15.80
2006,08,21,09,31,15.80
2006,08,21,09,32,15.80
2006,08,21,09,33,15.90
2006,08,21,09,34,15.90
2006,08,21,09,35,16.00
2006,08,21,09,36,16.10
2006,08,21,09,37,16.10
2006,08,21,09,38,16.20
2006,08,21,09,39,16.30
2006,08,21,09,40,16.30
2006,08,21,09,41,16.40
2006,08,21,09,42,16.40
2006,08,21,09,43,16.50
2006,08,21,09,44,16.60
2006,08,21,09,45,16.70
2006,08,21,09,46,16.70
2006,08,21,09,47,16.80
2006,08,21,09,48,16.90
2006,08,21,09,49,17.00
2006,08,21,09,50,17.00
2006,08,21,09,51,17.10
2006,08,21,09,52,17.20
2006,08,21,09,53,17.30
2006,08,21,09,54,17.30
2006,08,21,09,55,17.40
2006,08,21,09,56,17.50
2006,08,21,09,57,17.60
2006,08,21,09,58,17.60
2006,08,21,09,59,17.60
2006,08,21,10,00,17.60
2006,08,21,10,01,17.60
2006,08,21,10,02,17.60
2006,08,21,10,03,17.60
2006,08,21,10,04,17.60
2006,08,21,10,05,17.60
2006,08,21,10,06,17.60
2006,08,21,10,07,17.70
2006,08,21,10,08,17.70
2006,08,21,10,09,17.80
2006,08,21,10,10,17.80
2006,08,21,10,11,17.90
2006,08,21,10,12,17.90
2006,08,21,10,13,17.90
2006,08,21,10,14,17.90
2006,08,21,10,15,17.90
2006,08,21,10,16,17.90
2006,08,21,10,17,17.90
2006,08,21,10,18,17.90
2006,08,21,10,19,17.80
2006,08,21,10,20,17.80
2006,08,21,10,21,17.80
2006,08,21,10,22,17.90
2006,08,21,10,23,17.90
2006,08,21,10,24,18.00
2006,08,21,10,25,18.10
2006,08,21,10,26,18.20
2006,08,21,10,27,18.10
2006,08,21,10,28,18.00
2006,08,21,10,29,17.90
2006,08,21,10,30,17.80
2006,08,21,10,31,17.70
2006,08,21,10,32,17.70
2006,08,21,10,33,17.60
2006,08,21,10,34,17.50
2006,08,21,10,35,17.40
2006,08,21,10,36,17.40
2006,08,21,10,37,17.30
2006,08,21,10,38,17.30
2006,08,21,10,39,17.40
2006,08,21,10,40,17.50
2006,08,21,10,41,17.50
2006,08,21,10,42,17.60
2006,08,21,10,43,17.70
2006,08,21,10,44,17.70
2006,08,21,10,45,17.70
2006,08,21,10,46,17.70
2006,08,21,10,47,17.70
2006,08,21,10,48,17.70
2006,08,21,10,49,17.60
2006,08,21,10,50,17.60
2006,08,21,10,51,17.50
2006,08,21,10,52,17.50
2006,08,21,10,53,17.50
2006,08,21,10,54,17.50
2006,08,21,10,55,17.50
2006,08,21,10,56,17.50
2006,08,21,10,57,17.50
2006,08,21,10,58,17.50
2006,08,21,10,59,17.40
2006,08,21,11,00,17.40
2006,08,21,11,01,17.30
2006,08,21,11,02,17.20
2006,08,21,11,03,17.20
2006,08,21,11,04,17.30
2006,08,21,11,05,17.30
2006,08,21,11,06,17.40
2006,08,21,11,07,17.50
2006,08,21,11,08,17.50
2006,08,21,11,09,17.50
2006,08,21,11,10,17.50
2006,08,21,11,11,17.50
2006,08,21,11,12,17.50
2006,08,21,11,13,17.50
2006,08,21,11,14,17.50
2006,08,21,11,15,17.50
2006,08,21,11,16,17.60
2006,08,21,11,17,17.60
2006,08,21,11,18,17.60
2006,08,21,11,19,17.50
2006,08,21,11,20,17.50
2006,08,21,11,21,17.40
2006,08,21,11,22,17.30
2006,08,21,11,23,17.20
2006,08,21,11,24,17.20
2006,08,21,11,25,17.20
2006,08,21,11,26,17.20
2006,08,21,11,27,17.20
2006,08,21,11,28,17.10
2006,08,21,11,29,17.10
2006,08,21,11,30,17.10
2006,08,21,11,31,17.10
2006,08,21,11,32,17.10
2006,08,21,11,33,17.10
2006,08,21,11,34,17.00
2006,08,21,11,35,17.00
2006,08,21,11,36,16.90
2006,08,21,11,37,16.80
2006,08,21,11,38,16.80
2006,08,21,11,39,16.70
2006,08,21,11,40,16.70
2006,08,21,11,41,16.70
2006,08,21,11,42,16.70
2006,08,21,11,43,16.70
2006,08,21,11,44,16.70
2006,08,21,11,45,16.70
2006,08,21,11,46,16.80
2006,08,21,11,47,16.80
2006,08,21,11,48,17.00
2006,08,21,11,49,17.00
2006,08,21,11,50,17.00
2006,08,21,11,51,17.00
2006,08,21,11,52,17.10
2006,08,21,11,53,17.10
2006,08,21,11,54,17.20
2006,08,21,11,55,17.30
2006,08,21,11,56,17.40
2006,08,21,11,57,17.50
2006,08,21,11,58,17.60
2006,08,21,11,59,17.70
2006,08,21,12,00,17.70
2006,08,21,12,01,17.70
2006,08,21,12,02,17.70
2006,08,21,12,03,17.70
2006,08,21,12,04,17.60
2006,08,21,12,05,17.40
2006,08,21,12,06,17.30
2006,08,21,12,07,17.20
2006,08,21,12,08,17.10
2006,08,21,12,09,17.00
2006,08,21,12,10,17.00
2006,08,21,12,11,17.10
2006,08,21,12,12,17.20
2006,08,21,12,13,17.30
2006,08,21,12,14,17.30
2006,08,21,12,15,17.40
2006,08,21,12,16,17.60
2006,08,21,12,17,17.70
2006,08,21,12,18,17.90
2006,08,21,12,19,17.90
2006,08,21,12,20,17.90
2006,08,21,12,21,18.00
2006,08,21,12,22,18.10
2006,08,21,12,23,18.20
2006,08,21,12,24,18.20
2006,08,21,12,25,18.30
2006,08,21,12,26,18.30
2006,08,21,12,27,18.30
2006,08,21,12,28,18.20
2006,08,21,12,29,18.00
2006,08,21,12,30,17.90
2006,08,21,12,31,17.90
2006,08,21,12,32,17.90
2006,08,21,12,33,17.90
2006,08,21,12,34,17.90
2006,08,21,12,35,18.00
2006,08,21,12,36,18.10
2006,08,21,12,37,18.10
2006,08,21,12,38,18.20
2006,08,21,12,39,18.20
2006,08,21,12,40,18.30
2006,08,21,12,41,18.40
2006,08,21,12,42,18.50
2006,08,21,12,43,18.50
2006,08,21,12,44,18.50
2006,08,21,12,45,18.50
2006,08,21,12,46,18.50
2006,08,21,12,47,18.40
2006,08,21,12,48,18.50
2006,08,21,12,49,18.50
2006,08,21,12,50,18.50
2006,08,21,12,51,18.60
2006,08,21,12,52,18.70
2006,08,21,12,53,18.80
2006,08,21,12,54,18.90
2006,08,21,12,55,18.90
2006,08,21,12,56,18.90
2006,08,21,12,57,18.90
2006,08,21,12,58,18.90
2006,08,21,12,59,18.80
2006,08,21,13,00,18.80
2006,08,21,13,01,18.80
2006,08,21,13,02,18.90
2006,08,21,13,03,19.00
2006,08,21,13,04,19.10
2006,08,21,13,05,19.10
2006,08,21,13,06,19.10
2006,08,21,13,07,19.10
2006,08,21,13,08,19.10
2006,08,21,13,09,19.10
2006,08,21,13,10,19.10
2006,08,21,13,11,19.10
2006,08,21,13,12,19.10
2006,08,21,13,13,18.90
2006,08,21,13,14,18.70
2006,08,21,13,15,18.50
2006,08,21,13,16,18.50
2006,08,21,13,17,18.50
2006,08,21,13,18,18.60
2006,08,21,13,19,18.70
2006,08,21,13,20,18.80
2006,08,21,13,21,18.90
2006,08,21,13,22,18.90
2006,08,21,13,23,18.90
2006,08,21,13,24,18.90
2006,08,21,13,25,19.00
2006,08,21,13,26,19.10
2006,08,21,13,27,19.10
2006,08,21,13,28,19.10
2006,08,21,13,29,19.20
2006,08,21,13,30,19.30
2006,08,21,13,31,19.30
2006,08,21,13,32,19.40
2006,08,21,13,33,19.40
2006,08,21,13,34,19.60
2006,08,21,13,35,19.80
2006,08,21,13,36,19.80
2006,08,21,13,37,19.80
2006,08,21,13,38,19.80
2006,08,21,13,39,19.80
2006,08,21,13,40,19.80
2006,08,21,13,41,19.90
2006,08,21,13,42,19.90
2006,08,21,13,43,20.00
2006,08,21,13,44,20.10
2006,08,21,13,45,20.20
2006,08,21,13,46,20.30
2006,08,21,13,47,20.40
2006,08,21,13,48,20.50
2006,08,21,13,49,20.50
2006,08,21,13,50,20.60
2006,08,21,13,51,20.50
2006,08,21,13,52,20.40
2006,08,21,13,53,20.40
2006,08,21,13,54,20.40
2006,08,21,13,55,20.40
2006,08,21,13,56,20.30
2006,08,21,13,57,20.30
2006,08,21,13,58,20.30
2006,08,21,13,59,20.30
2006,08,21,14,00,20.40
2006,08,21,14,01,20.50
2006,08,21,14,02,20.50
2006,08,21,14,03,20.50
2006,08,21,14,04,20.50
2006,08,21,14,05,20.50
2006,08,21,14,06,20.60
2006,08,21,14,07,20.60
2006,08,21,14,08,20.60
2006,08,21,14,09,20.60
2006,08,21,14,10,20.60
2006,08,21,14,11,20.60
2006,08,21,14,12,20.50
2006,08,21,14,13,20.50
2006,08,21,14,14,20.40
2006,08,21,14,15,20.30
2006,08,21,14,16,20.20
2006,08,21,14,17,20.20
2006,08,21,14,18,20.20
2006,08,21,14,19,20.20
2006,08,21,14,20,20.00
2006,08,21,14,21,19.90
2006,08,21,14,22,19.90
2006,08,21,14,23,19.80
2006,08,21,14,24,19.60
2006,08,21,14,25,19.40
2006,08,21,14,26,19.30
2006,08,21,14,27,19.20
2006,08,21,14,28,19.10
2006,08,21,14,29,19.00
2006,08,21,14,30,18.80
2006,08,21,14,31,18.60
2006,08,21,14,32,18.50
2006,08,21,14,33,18.50
2006,08,21,14,34,18.50
2006,08,21,14,35,18.60
2006,08,21,14,36,18.60
2006,08,21,14,37,18.50
2006,08,21,14,38,18.50
2006,08,21,14,39,18.50
2006,08,21,14,40,18.60
2006,08,21,14,41,18.60
2006,08,21,14,42,18.40
2006,08,21,14,43,18.40
2006,08,21,14,44,18.50
2006,08,21,14,45,18.60
2006,08,21,14,46,18.70
2006,08,21,14,47,18.90
2006,08,21,14,48,18.90
2006,08,21,14,49,19.10
2006,08,21,14,50,19.10
2006,08,21,14,51,18.90
2006,08,21,14,52,18.90
2006,08,21,14,53,18.90
2006,08,21,14,54,18.90
2006,08,21,14,55,19.00
2006,08,21,14,56,19.10
2006,08,21,14,57,19.10
2006,08,21,14,58,19.00
2006,08,21,14,59,18.90
2006,08,21,15,00,18.90
2006,08,21,15,01,18.80
2006,08,21,15,02,18.70
2006,08,21,15,03,18.70
2006,08,21,15,04,18.60
2006,08,21,15,05,18.60
2006,08,21,15,06,18.60
2006,08,21,15,07,18.50
2006,08,21,15,08,18.50
2006,08,21,15,09,18.60
2006,08,21,15,10,18.70
2006,08,21,15,11,18.90
2006,08,21,15,12,19.10
2006,08,21,15,13,19.20
2006,08,21,15,14,19.30
2006,08,21,15,15,19.40
2006,08,21,15,16,19.30
2006,08,21,15,17,19.30
2006,08,21,15,18,19.40
2006,08,21,15,19,19.30
2006,08,21,15,20,19.40
2006,08,21,15,21,19.50
2006,08,21,15,22,19.60
2006,08,21,15,23,19.60
2006,08,21,15,24,19.60
2006,08,21,15,25,19.60
2006,08,21,15,26,19.60
2006,08,21,15,27,19.60
2006,08,21,15,28,19.50
2006,08,21,15,29,19.50
2006,08,21,15,30,19.50
2006,08,21,15,31,19.60
2006,08,21,15,32,19.60
2006,08,21,15,33,19.60
2006,08,21,15,34,19.60
2006,08,21,15,35,19.60
2006,08,21,15,36,19.60
2006,08,21,15,37,19.60
2006,08,21,15,38,19.50
2006,08,21,15,39,19.40
2006,08,21,15,40,19.40
2006,08,21,15,41,19.50
2006,08,21,15,42,19.50
2006,08,21,15,43,19.60
2006,08,21,15,44,19.60
2006,08,21,15,45,19.60
2006,08,21,15,46,19.50
2006,08,21,15,47,19.50
2006,08,21,15,48,19.50
2006,08,21,15,49,19.40
2006,08,21,15,50,19.30
2006,08,21,15,51,19.00
2006,08,21,15,52,18.90
2006,08,21,15,53,18.80
2006,08,21,15,54,18.70
2006,08,21,15,55,18.70
2006,08,21,15,56,18.70
2006,08,21,15,57,18.70
2006,08,21,15,58,18.70
2006,08,21,15,59,18.70
2006,08,21,16,00,18.80
2006,08,21,16,01,18.80
2006,08,21,16,02,18.80
2006,08,21,16,03,18.70
2006,08,21,16,04,18.60
2006,08,21,16,05,18.60
2006,08,21,16,06,18.60
2006,08,21,16,07,18.50
2006,08,21,16,08,18.40
2006,08,21,16,09,18.40
2006,08,21,16,10,18.40
2006,08,21,16,11,18.30
2006,08,21,16,12,18.30
2006,08,21,16,13,18.30
2006,08,21,16,14,18.20
2006,08,21,16,15,18.20
2006,08,21,16,16,18.30
2006,08,21,16,17,18.40
2006,08,21,16,18,18.50
2006,08,21,16,19,18.50
2006,08,21,16,20,18.50
2006,08,21,16,21,18.50
2006,08,21,16,22,18.50
2006,08,21,16,23,18.40
2006,08,21,16,24,18.40
2006,08,21,16,25,18.40
2006,08,21,16,26,18.40
2006,08,21,16,27,18.40
2006,08,21,16,28,18.50
2006,08,21,16,29,18.50
2006,08,21,16,30,18.50
2006,08,21,16,31,18.60
2006,08,21,16,32,18.60
2006,08,21,16,33,18.70
2006,08,21,16,34,18.80
2006,08,21,16,35,18.90
2006,08,21,16,36,18.90
2006,08,21,16,37,18.80
2006,08,21,16,38,18.90
2006,08,21,16,39,18.90
2006,08,21,16,40,18.90
2006,08,21,16,41,19.00
2006,08,21,16,42,19.00
2006,08,21,16,43,18.90
2006,08,21,16,44,18.90
2006,08,21,16,45,18.90
2006,08,21,16,46,18.90
2006,08,21,16,47,18.90
2006,08,21,16,48,19.00
2006,08,21,16,49,19.10
2006,08,21,16,50,19.10
2006,08,21,16,51,19.10
2006,08,21,16,52,19.20
2006,08,21,16,53,19.20
2006,08,21,16,54,19.20
2006,08,21,16,55,19.20
2006,08,21,16,56,19.40
2006,08,21,16,57,19.40
2006,08,21,16,58,19.50
2006,08,21,16,59,19.60
2006,08,21,17,00,19.60
2006,08,21,17,01,19.60
2006,08,21,17,02,19.60
2006,08,21,17,03,19.70
2006,08,21,17,04,19.70
2006,08,21,17,05,19.80
2006,08,21,17,06,19.80
2006,08,21,17,07,19.80
2006,08,21,17,08,19.80
2006,08,21,17,09,19.70
2006,08,21,17,10,19.80
2006,08,21,17,11,19.90
2006,08,21,17,12,19.90
2006,08,21,17,13,19.90
2006,08,21,17,14,20.00
2006,08,21,17,15,20.10
2006,08,21,17,16,20.20
2006,08,21,17,17,20.30
2006,08,21,17,18,20.40
2006,08,21,17,19,20.50